This is the latest recevied weather packets stored in our database for station/object KD9IXX-13. If no packets are shown the sender has not sent any weather packets the latest 10 day(s).
| Time | Temp. | Humidity | Pressure | Rain* | Wind** | Luminosity | Snow |
|---|---|---|---|---|---|---|---|
| 1777970102 | 11.11° C | 72% | 1006.2 hPa | 0 mm | - | 0 W/m² | - |
| 1777969802 | 11.67° C | 72% | 1006.3 hPa | 0 mm | - | 0 W/m² | - |
| 1777969502 | 11.67° C | 70% | 1006 hPa | 0 mm | - | 0 W/m² | - |
| 1777969202 | 11.67° C | 71% | 1006 hPa | 0 mm | - | 0 W/m² | - |
| 1777968903 | 11.67° C | 69% | 1006.2 hPa | 0 mm | - | 0 W/m² | - |
| 1777968602 | 12.22° C | 68% | 1006.1 hPa | 0 mm | - | 0 W/m² | - |
| 1777968303 | 11.67° C | 68% | 1005.8 hPa | 0 mm | - | 0 W/m² | - |
| 1777968003 | 11.67° C | 68% | 1005.7 hPa | 0 mm | - | 0 W/m² | - |
| 1777967702 | 11.67° C | 68% | 1005.4 hPa | 0 mm | - | 0 W/m² | - |
| 1777967402 | 11.11° C | 68% | 1005.3 hPa | 0 mm | - | 0 W/m² | - |
| 1777967103 | 11.11° C | 69% | 1005.2 hPa | 0 mm | - | 0 W/m² | - |
| 1777966803 | 10.56° C | 71% | 1005.4 hPa | 0 mm | - | 0 W/m² | - |
| 1777966502 | 10.56° C | 71% | 1005.2 hPa | 0 mm | - | 0 W/m² | - |
| 1777966202 | 10.56° C | 72% | 1004.8 hPa | 0 mm | - | 0 W/m² | - |
| 1777965902 | 11.11° C | 72% | 1004.8 hPa | 0 mm | - | 0 W/m² | - |
| 1777965602 | 11.11° C | 68% | 1004.8 hPa | 0 mm | - | 0 W/m² | - |
| 1777965302 | 11.67° C | 67% | 1004.6 hPa | 0 mm | - | 0 W/m² | - |
| 1777965002 | 12.22° C | 65% | 1004.5 hPa | 0 mm | - | 0 W/m² | - |
| 1777964702 | 12.22° C | 65% | 1004.6 hPa | 0 mm | - | 0 W/m² | - |
| 1777964402 | 12.22° C | 64% | 1004.7 hPa | 0 mm | - | 0 W/m² | - |
| 1777964102 | 12.78° C | 63% | 1005 hPa | 0 mm | - | 0 W/m² | - |
| 1777963802 | 12.78° C | 64% | 1004.9 hPa | 0 mm | - | 0 W/m² | - |
| 1777963502 | 12.78° C | 63% | 1004.7 hPa | 0 mm | - | 0 W/m² | - |
| 1777963202 | 13.33° C | 63% | 1004.4 hPa | 0 mm | - | 0 W/m² | - |
| 1777962902 | 13.33° C | 62% | 1004.2 hPa | 0 mm | - | 0 W/m² | - |
* Rain latest hour (hover to see other rain measurements)
** Current wind speed in m/s (hover to see current wind gust speed)